User: anonymous   Login
Location: Blue Moon Astronomical Observatory
(34.7385°N, 94.5476°W)
Time: 17:58:42
(UTC-05:00)
Language:

Iridium 77 - Orbit

View from above orbital plane
View from above orbital plane
View from above satellite
View from above satellite

Ground track
Ground track

The orbit data is extracted from the following two-line orbital elements,

1 25471U 98051E   16150.52919595  .00000007  00000-0 -44293-5 0  9995
2 25471  86.3975 182.0193 0002198  90.3172  73.0073 14.34218794933047
Epoch (UTC): 29 May 2016 12:42:02
Eccentricity: 0.0002198
inclination: 86.3975°
perigee height: 776 km
apogee height: 779 km
right ascension of ascending node: 182.0193°
argument of perigee: 90.3172°
revolutions per day: 14.34218794
mean anomaly at epoch: 73.0073°
orbit number at epoch: 93304

The dashed part of the orbit path shows where the satellite is in the earth's shadow,  

DLR